GFSNGP_2pvu_pres_276.txt.gz
Presure
163 169 151 150 186 175 173 173 164 164 160 154 151 154 158 185 156 171 167 205 166 164 197 178 174 170 184 184 182 163 144 159 199 211 185 224 217 243 203 244 243 251 257 262
182 185 180 173 171 171 182 148 145 151 177 171 165 158 166 205 184 164 190 190 175 183 188 159 170 190 162 191 175 185 199 197 209 144 213 221 222 225 230 227 250 244 258 251
171 170 178 183 162 181 171 161 184 169 158 160 155 158 177 181 178 173 169 160 194 168 187 180 189 172 185 169 183 198 194 199 209 213 165 209 225 232 228 236 239 241 257 247
154 178 165 170 174 170 177 180 143 162 182 174 179 204 201 213 172 162 161 158 183 179 191 185 188 185 175 174 180 193 200 202 195 218 207 227 224 233 230 235 245 247 241 260
173 163 176 178 179 174 173 175 169 190 167 197 200 212 201 191 175 160 200 171 179 190 187 115 188 160 197 164 195 200 195 206 209 208 212 222 231 237 234 232 237 247 245 267
189 185 152 223 192 205 180 211 218 206 215 134 217 200 202 190 158 200 192 192 197 193 191 189 187 184 189 189 192 207 207 210 205 218 221 230 227 238 233 234 237 252 248 266
149 166 189 174 195 155 204 212 189 213 201 202 174 197 181 165 197 200 186 178 139 79 182 188 190 181 191 199 132 203 205 217 210 219 229 212 235 239 234 236 238 251 254 268
179 195 210 215 196 201 188 165 205 209 177 141 191 198 188 191 193 194 191 185 190 190 184 195 181 196 173 193 197 211 220 216 211 223 212 216 234 240 241 241 240 250 260 261
220 218 209 156 199 197 177 196 162 194 188 199 139 199 201 203 194 199 195 190 192 186 195 189 190 199 190 202 209 215 215 215 219 218 209 220 234 239 248 249 245 257 266 259
221 193 184 197 198 207 188 205 201 197 193 199 192 201 196 194 198 190 200 198 188 200 184 193 122 193 201 204 210 223 213 211 210 211 209 234 234 245 251 261 251 266 267 277
193 204 210 217 201 208 192 192 194 198 197 206 199 190 205 193 198 205 193 200 200 201 204 131 197 202 209 209 196 214 232 213 216 211 227 238 243 250 251 257 269 274 263 279
203 208 207 213 220 201 198 205 198 202 202 198 207 200 200 201 196 137 207 200 147 122 208 214 206 224 128 213 209 217 207 218 212 218 234 251 254 260 262 262 280 263 282 276
209 212 197 204 184 202 205 199 202 200 192 208 209 195 200 207 208 141 106 131 213 203 217 222 231 216 228 205 206 216 218 206 211 230 248 262 268 274 264 277 265 291 277 278
202 200 210 203 211 209 213 202 175 200 215 211 209 203 183 218 105 137 183 121 216 234 230 234 225 211 218 208 203 205 194 234 237 253 271 286 281 274 277 270 283 277 276 273
210 211 207 212 205 213 140 202 207 204 204 215 214 214 222 227 110 197 223 171 219 222 229 201 209 210 206 209 189 249 258 247 271 283 303 293 284 278 271 285 281 274 272 265
207 217 230 200 208 224 129 217 221 215 212 121 223 161 227 99 248 243 230 137 232 224 211 209 207 194 205 243 271 203 283 298 313 305 294 280 310 281 286 278 272 274 270 244
216 111 209 111 215 205 239 226 220 226 232 208 204 218 224 231 231 217 234 265 259 244 258 205 242 252 272 277 235 320 321 304 294 335 328 305 294 285 276 271 277 272 240 233
202 203 189 216 214 214 203 201 208 213 217 220 125 182 229 227 232 231 227 239 282 271 225 269 269 282 305 325 347 374 351 339 322 316 305 290 263 275 270 282 274 239 233 226
201 212 210 214 215 221 222 215 218 222 232 236 168 243 247 247 259 261 268 285 278 280 291 303 314 319 405 389 363 345 326 318 304 300 280 276 270 274 283 275 239 234 227 218
213 211 213 214 218 242 243 226 235 234 233 238 239 257 259 263 276 277 292 290 313 309 320 305 400 388 380 343 331 319 301 303 281 274 277 273 274 280 275 239 233 227 220 215
87 213 214 228 239 242 235 241 248 242 239 231 259 262 270 275 291 289 322 320 320 294 418 381 364 361 338 324 304 293 304 280 277 277 267 273 280 276 239 231 226 220 214 213
223 224 221 235 243 233 241 246 246 242 255 271 273 273 285 297 318 320 323 291 416 395 360 344 330 318 304 125 304 298 283 277 264 265 274 283 270 239 231 226 218 215 214 209
236 234 237 239 240 242 245 251 254 263 269 274 285 307 314 318 326 298 339 395 381 345 324 312 271 293 304 296 280 279 271 263 266 276 277 273 238 230 226 219 214 215 210 216
257 256 255 251 257 257 256 282 281 282 291 297 294 308 314 302 274 413 384 365 333 317 310 293 304 295 287 275 278 267 265 263 279 276 254 236 228 224 218 215 214 209 213 206
264 270 263 285 284 279 287 292 294 294 291 295 301 291 357 427 401 376 353 326 314 309 299 298 291 285 275 273 270 264 273 283 277 254 237 231 225 216 215 214 213 212 205 210
189 278 279 279 213 214 286 300 317 343 343 316 306 442 422 389 370 347 327 312 304 303 297 289 285 276 269 266 264 275 286 279 257 236 231 225 217 214 213 213 213 205 210 207
289 291 283 318 192 314 332 341 286 290 330 355 430 409 383 362 341 320 306 307 300 292 290 285 273 271 266 251 285 286 284 259 234 232 224 217 215 211 213 210 206 212 205 209

GFSNGP_2pvu_pres_279.txt.gz
Presure
172 170 158 179 181 186 177 176 179 152 183 167 157 181 182 175 181 141 173 155 159 176 182 158 186 192 200 198 157 167 168 176 193 189 193 195 190 211 215 221 215 222 216 234
184 182 165 190 177 156 178 155 177 175 177 185 161 160 163 166 163 143 166 203 163 197 190 192 195 201 173 167 199 183 193 182 185 197 180 196 193 210 221 219 228 231 212 213
172 174 179 182 179 177 185 185 181 163 167 163 178 170 172 132 172 159 171 195 205 188 187 141 188 200 188 178 163 192 173 188 166 182 167 196 200 209 221 220 190 218 212 212
181 177 188 187 184 150 168 145 158 160 157 186 196 224 160 201 187 178 139 206 197 210 198 188 198 189 151 193 197 174 189 181 185 193 195 198 200 211 225 219 218 221 206 218
189 186 177 174 172 184 187 181 169 170 166 188 174 165 158 212 146 202 200 193 174 181 203 186 190 151 186 190 195 183 183 186 185 182 202 192 209 220 215 198 215 225 214 220
174 182 182 185 188 193 222 199 204 163 192 205 140 174 220 193 184 200 198 199 173 195 155 153 196 189 197 198 190 191 188 185 183 199 206 198 219 223 211 221 214 212 208 226
186 187 174 157 184 179 186 189 186 172 196 145 209 197 205 179 157 164 198 194 166 173 188 198 185 187 124 189 200 184 139 194 199 199 202 213 220 226 181 213 202 211 217 228
183 186 181 183 179 165 197 142 205 214 153 206 198 180 187 161 183 168 193 175 199 191 194 199 196 198 194 202 190 191 189 201 203 201 217 225 215 195 212 193 196 219 226 239
190 219 226 181 230 212 203 142 193 169 195 211 139 197 198 197 207 171 143 192 181 193 202 193 192 197 199 128 193 195 197 208 197 214 216 223 225 209 182 212 216 258 258 251
242 199 210 217 217 226 161 213 195 135 142 203 199 209 201 196 191 198 149 201 199 191 204 192 193 191 198 200 203 196 207 210 213 226 226 222 215 208 211 196 244 266 264 278
205 210 210 211 211 210 198 204 201 201 182 207 209 201 203 192 197 209 202 190 179 140 204 206 181 206 208 199 204 216 212 215 230 213 224 218 182 213 194 244 278 275 291 294
211 208 220 205 206 206 214 206 206 191 218 199 214 215 200 201 204 198 192 210 214 208 202 213 139 119 224 222 214 227 237 224 202 223 256 228 208 194 226 284 287 295 296 288
203 210 205 209 209 196 208 200 202 209 219 198 203 209 195 189 172 210 207 208 210 160 209 206 165 214 249 218 222 217 207 183 222 228 265 206 241 287 292 293 308 300 283 294
211 208 211 210 206 215 217 211 201 203 209 202 196 199 207 201 198 213 216 194 220 221 139 225 232 227 202 215 236 199 263 267 253 272 279 206 304 299 300 335 338 277 309 292
211 196 215 214 232 218 211 219 215 206 211 207 210 200 217 152 215 208 202 207 205 199 199 204 214 233 248 238 263 271 237 272 278 306 312 307 308 377 368 357 326 310 289 288
212 218 226 236 219 218 211 214 216 229 233 214 221 206 212 211 225 217 229 184 234 252 265 246 263 236 244 270 284 285 284 304 316 312 309 340 369 352 342 329 306 282 285 279
229 228 211 145 185 222 222 217 252 211 214 211 200 201 210 216 222 223 231 226 236 259 262 276 260 238 162 283 155 293 323 321 317 402 391 360 346 334 312 298 282 283 278 277
213 213 133 133 220 237 229 200 139 203 213 84 215 215 210 212 230 223 233 235 245 250 261 270 272 267 248 309 333 321 348 402 375 375 344 330 324 306 288 281 278 278 277 251
213 221 200 140 224 213 206 222 210 211 209 217 221 218 222 228 229 238 240 245 263 265 270 271 269 313 304 316 342 400 374 366 345 136 219 308 299 282 279 277 278 276 250 240
211 213 211 215 217 206 219 224 207 209 212 212 223 222 228 237 238 242 254 265 275 278 284 301 324 310 303 406 381 355 361 334 324 319 297 297 278 282 276 275 282 250 240 229
219 211 220 221 216 208 204 210 221 214 222 221 225 234 237 237 248 263 275 291 313 321 331 315 306 393 395 358 345 339 331 314 307 299 292 277 278 270 276 170 251 240 232 226
222 205 213 213 215 207 215 216 218 216 225 226 224 241 240 247 261 290 296 319 324 318 310 345 405 382 353 335 323 314 295 300 302 282 286 272 267 276 279 202 238 233 228 220
211 211 219 219 218 221 217 215 220 226 225 237 242 242 257 281 301 312 307 316 312 373 436 400 371 345 327 314 296 299 301 287 287 273 267 264 263 279 259 238 234 228 219 215
218 215 214 219 220 224 226 234 236 237 240 246 254 284 308 310 300 319 307 351 469 426 386 364 339 323 312 292 305 294 281 286 270 256 267 160 282 258 238 235 229 218 215 210
226 230 190 230 234 235 236 237 241 251 270 307 302 297 292 340 353 360 353 371 420 379 352 333 305 310 294 303 289 281 278 272 267 263 275 283 281 240 236 228 220 215 209 214
239 238 205 237 238 245 251 263 284 285 289 121 312 325 349 349 346 442 447 407 369 348 331 317 311 294 299 289 282 277 269 272 264 267 287 289 245 238 227 222 217 212 207 214
245 250 241 257 272 281 284 285 290 291 326 343 340 350 340 354 461 429 393 356 339 327 317 299 300 293 192 282 280 267 255 267 272 286 286 251 236 232 221 215 233 214 213 208

GFSNGP_2pvu_pres_282.txt.gz
Presure
166 159 166 157 174 168 173 172 181 178 157 166 189 175 176 157 158 153 163 143 142 177 191 145 182 192 188 192 206 179 195 186 159 181 181 191 195 187 193 190 195 201 199 181
165 156 161 164 178 174 165 163 174 179 168 182 167 172 169 166 168 149 178 162 169 170 172 185 200 190 200 196 199 154 193 200 195 185 193 194 181 198 189 189 195 205 202 199
173 181 174 178 150 175 184 183 164 155 179 173 170 148 168 172 194 199 188 178 189 212 162 189 196 196 139 188 192 154 146 187 190 201 190 155 200 191 192 194 204 203 203 209
173 171 161 170 182 166 168 150 159 179 174 187 168 171 172 176 199 168 207 177 192 206 188 196 169 145 177 201 188 185 184 201 189 194 117 194 192 187 195 196 190 201 204 215
150 187 159 164 177 184 171 182 168 138 153 172 163 167 162 185 200 210 196 213 206 200 138 211 170 202 193 202 196 202 160 195 200 194 192 192 196 200 191 193 217 224 197 232
176 181 166 148 169 160 154 175 179 172 162 168 177 188 184 185 189 223 143 218 200 203 139 202 144 191 139 195 202 195 194 193 151 197 190 197 201 198 210 225 213 227 236 222
187 186 135 161 189 190 172 175 141 180 184 178 158 181 146 192 205 148 195 165 174 179 208 148 201 162 198 197 191 186 191 196 194 183 200 200 206 213 216 228 227 231 220 184
180 173 189 154 183 190 186 139 179 140 190 216 184 179 220 189 205 207 204 135 207 202 169 186 200 193 209 201 186 191 195 191 189 198 206 200 207 212 222 222 223 218 261 215
204 190 190 190 187 186 182 176 184 162 219 192 203 236 153 203 153 158 205 175 217 204 207 179 195 195 188 181 107 193 190 172 204 204 207 211 219 225 226 205 232 270 270 278
233 236 184 149 179 212 201 206 211 223 232 224 219 207 201 212 206 202 153 198 198 197 203 213 195 114 192 112 105 198 197 200 166 210 223 226 195 207 222 281 224 283 188 272
226 210 221 149 224 244 218 224 214 224 222 227 211 210 190 197 202 196 198 190 196 208 203 199 197 203 184 125 206 204 131 214 212 205 192 197 206 209 253 283 283 195 299 299
218 214 227 211 232 221 226 228 224 212 221 203 203 202 200 200 197 201 207 197 211 207 201 207 199 185 209 192 199 156 203 191 194 236 190 180 255 254 269 304 315 308 300 295
224 221 221 201 223 209 224 228 209 186 199 218 205 214 208 200 202 205 212 210 222 216 205 207 209 215 209 227 201 213 198 207 251 153 156 193 282 315 316 316 299 300 299 305
211 211 227 214 222 197 204 225 208 203 202 208 200 204 209 205 210 218 205 210 211 217 218 234 201 176 202 81 203 219 139 218 156 148 239 306 305 313 314 305 330 313 321 356
208 218 222 212 197 216 220 222 199 200 210 213 205 208 214 218 217 213 213 215 223 220 209 215 188 200 248 233 206 126 140 145 235 305 223 314 277 306 407 442 393 367 358 350
201 206 198 193 196 203 219 223 194 211 212 212 222 212 204 222 211 208 215 212 211 222 222 180 220 234 212 250 248 254 265 323 298 311 317 309 459 442 364 345 362 347 325 312
207 206 197 216 208 231 232 214 207 201 212 207 202 211 201 84 213 146 146 190 234 225 228 147 234 207 245 246 257 264 152 319 308 307 453 435 393 370 354 337 318 306 304 293
211 197 204 217 229 233 223 207 214 212 125 134 142 194 175 211 225 222 218 233 220 224 226 237 239 251 244 258 274 336 320 314 413 424 392 370 348 336 315 314 303 296 288 275
218 225 234 207 235 222 205 212 205 211 195 195 206 213 215 213 213 227 221 229 234 232 239 202 251 251 266 291 323 329 398 434 399 372 372 346 334 312 307 303 290 283 271 276
212 232 233 218 222 220 214 204 218 214 207 210 212 225 220 215 224 233 232 222 236 241 245 254 253 271 324 323 359 448 416 375 355 351 336 321 314 298 300 283 279 270 276 282
221 227 213 208 216 215 217 219 214 221 233 215 224 225 218 217 230 235 227 239 236 214 253 263 277 327 310 382 439 407 372 347 328 330 310 307 288 302 277 278 265 176 283 251
213 231 225 217 222 221 222 223 212 215 227 213 218 224 233 240 239 241 235 243 254 256 264 283 330 297 373 437 399 366 339 322 311 298 297 302 286 281 270 263 276 280 252 238
222 219 219 220 215 208 219 217 224 227 233 220 229 231 182 237 242 253 252 253 260 271 299 320 318 313 428 397 361 338 323 301 290 305 292 289 272 264 257 275 279 253 238 236
222 221 212 215 220 209 226 214 228 227 232 232 227 232 244 243 242 254 252 256 269 318 313 369 447 421 387 359 341 320 300 288 303 283 284 266 261 259 275 278 282 240 238 228
217 218 223 223 219 216 229 229 228 231 231 229 240 227 247 253 186 265 277 316 297 356 356 450 415 383 359 338 321 306 292 301 277 280 271 266 260 264 274 289 251 237 231 221
222 221 222 222 233 230 230 230 232 239 221 245 234 250 255 270 281 311 298 368 326 362 441 408 380 361 338 315 310 138 146 283 279 278 266 265 270 268 281 284 239 236 219 219
229 229 227 233 234 233 236 239 241 242 248 254 259 271 313 302 289 366 372 351 428 427 400 373 357 339 321 134 135 138 146 255 280 271 265 264 269 280 282 243 238 227 217 214

GFSNGP_2pvu_pres_285.txt.gz
Presure
158 171 182 171 161 159 179 127 114 154 178 151 169 153 157 162 150 155 170 162 170 166 147 171 168 139 190 204 208 162 130 194 202 185 190 202 187 191 119 199 192 195 182 202
188 190 186 166 178 152 175 176 173 149 149 157 170 157 155 151 159 168 159 171 169 138 161 167 153 208 200 201 163 198 191 184 191 182 182 188 202 187 198 188 196 192 206 198
192 173 175 160 174 173 175 173 141 171 170 143 176 163 148 166 164 170 142 145 157 148 163 160 168 203 194 203 152 194 138 195 197 196 182 191 193 193 186 191 197 195 194 212
143 197 156 139 161 173 177 162 165 166 149 148 147 166 175 147 161 171 165 150 150 160 187 209 213 137 168 191 193 201 197 167 200 190 200 199 191 192 186 193 167 186 213 213
169 156 174 201 157 189 158 184 181 142 183 183 170 189 141 141 139 165 146 162 166 177 133 219 145 193 195 199 189 203 208 183 209 192 205 192 193 195 205 194 192 205 205 218
184 176 156 175 172 176 180 145 152 180 142 161 170 158 170 163 149 148 182 170 176 228 211 147 181 163 213 179 197 186 201 153 196 197 184 194 190 192 174 209 201 205 223 230
149 184 165 131 181 166 190 159 177 174 169 171 162 150 174 142 159 160 147 206 219 215 208 162 196 208 196 196 201 168 196 200 125 182 154 209 171 184 200 203 204 230 207 218
179 214 147 216 218 188 140 189 185 188 154 189 185 175 156 176 195 164 140 223 222 213 205 207 193 190 191 191 187 191 191 198 137 121 208 182 192 200 198 220 208 211 233 243
249 235 138 226 149 239 231 239 235 236 201 188 175 140 153 167 191 217 224 220 213 150 195 193 199 203 209 185 189 181 199 198 197 208 192 206 192 210 149 153 198 233 136 215
227 218 141 229 143 236 256 227 146 210 217 240 134 143 143 211 231 218 214 217 210 212 192 178 190 197 202 198 198 201 205 191 198 201 209 217 215 158 184 217 233 246 232 308
224 220 218 220 178 228 233 239 222 147 130 208 195 232 229 223 217 202 194 197 208 192 197 197 198 200 197 207 193 194 200 190 203 231 216 205 197 183 140 144 239 262 318 309
235 229 229 221 239 227 225 227 210 211 221 230 219 224 212 221 217 207 211 209 201 200 204 193 196 200 122 113 210 230 216 146 208 226 147 130 142 201 218 236 339 300 319 299
234 209 217 223 215 200 218 212 217 206 225 204 224 204 212 225 210 200 200 192 196 207 211 203 202 201 211 146 224 216 141 233 243 162 245 246 237 209 292 317 322 324 308 362
219 209 209 219 221 206 222 213 209 221 207 213 203 199 192 205 200 195 201 201 200 202 201 220 212 223 213 219 203 191 120 183 230 245 154 249 258 292 325 316 373 382 377 442
230 223 209 200 208 206 207 236 213 216 220 211 196 195 208 212 222 219 198 204 160 202 209 199 216 207 211 227 230 225 242 241 257 228 259 263 304 317 372 385 438 441 415 380
216 205 217 207 211 208 220 204 209 212 205 212 198 201 187 211 221 226 220 116 204 218 194 214 205 227 214 232 199 239 219 253 252 261 266 296 316 404 433 437 413 372 357 348
221 193 209 224 200 221 241 224 219 208 220 208 203 171 196 218 224 233 186 143 206 204 209 194 176 220 240 245 235 243 250 254 264 267 341 304 407 422 402 373 351 346 334 323
208 228 219 207 198 209 196 210 200 209 223 210 210 203 221 228 222 211 225 232 225 190 198 222 226 239 247 242 235 246 251 274 280 332 297 439 393 375 373 346 341 317 319 306
203 206 209 220 206 216 217 210 223 222 215 137 210 210 206 235 209 213 227 239 219 212 206 239 218 239 245 243 239 261 275 293 351 301 429 382 355 358 334 329 318 316 293 284
209 229 201 211 208 220 200 205 195 208 224 199 211 211 229 216 234 219 224 214 198 222 235 231 245 245 242 254 265 273 300 331 290 423 379 349 345 333 317 308 302 289 279 278
225 203 206 210 211 209 205 208 203 213 213 211 230 220 218 222 230 224 190 230 223 238 228 185 242 241 265 264 265 294 377 288 420 376 345 332 257 319 288 301 279 277 276 265
224 193 233 210 217 228 227 218 210 210 218 220 212 221 222 222 223 228 237 232 147 238 249 241 255 265 271 277 292 319 296 418 377 347 331 312 301 295 300 284 277 268 263 269
224 215 225 225 204 210 205 211 208 215 219 217 226 225 239 224 244 216 234 240 245 251 252 264 266 271 280 307 370 436 420 379 350 334 311 302 303 289 286 277 266 264 265 275
230 210 209 212 234 216 220 207 219 220 221 232 240 236 234 236 240 236 250 245 261 261 256 264 267 292 368 334 442 414 382 352 332 319 151 305 291 288 272 268 263 265 273 280
212 214 216 223 224 220 232 215 211 223 223 244 244 239 230 231 239 227 255 262 263 272 268 287 315 438 320 430 407 381 354 329 136 135 157 144 285 275 266 266 266 264 273 292
216 216 214 227 224 225 223 221 221 221 235 243 252 248 247 250 220 253 259 267 277 274 288 303 306 429 416 399 375 355 332 324 168 210 146 152 226 283 270 265 269 278 279 291
226 225 218 213 212 232 234 237 231 245 251 236 240 229 239 251 255 262 274 264 292 273 294 435 421 415 391 370 352 330 323 313 299 302 286 154 162 277 273 267 267 277 291 272

GFSNGP_2pvu_pres_288.txt.gz
Presure
203 199 200 199 182 183 173 189 191 182 178 175 164 175 174 168 156 158 170 144 155 154 140 155 144 152 176 134 147 130 154 204 212 202 192 196 192 185 189 196 184 186 181 191
204 201 195 197 181 176 187 190 191 197 190 171 151 165 166 168 168 159 160 181 158 164 173 170 165 174 150 129 145 164 157 205 202 199 196 175 186 199 195 194 189 190 188 188
191 209 210 176 169 198 195 185 179 187 185 176 154 187 141 164 153 165 151 171 173 157 153 186 148 164 138 161 146 209 203 209 194 184 194 200 175 193 194 181 196 184 190 152
147 159 174 151 69 145 191 182 170 149 157 183 171 161 162 159 174 152 187 177 140 146 158 159 164 150 158 165 192 208 144 180 199 187 200 179 199 197 185 192 196 196 202 200
206 211 179 198 185 182 178 190 190 173 196 184 164 147 158 143 161 170 167 149 147 159 161 149 156 138 171 205 143 210 192 194 196 190 192 191 154 181 163 147 192 199 205 188
277 198 206 215 133 201 186 183 170 151 166 177 180 184 171 173 176 156 173 130 168 169 169 133 159 181 189 187 211 203 194 195 180 200 193 205 195 188 182 163 153 118 204 144
297 191 199 358 140 282 285 176 137 181 130 169 167 171 170 173 177 152 156 178 159 174 159 165 142 175 211 204 197 194 192 188 192 199 179 193 194 193 194 144 196 231 192 214
429 399 149 382 202 148 187 220 209 137 180 204 199 140 187 202 187 192 219 234 212 217 227 210 206 215 205 204 202 198 195 204 194 192 192 192 191 102 163 231 219 150 139 141
363 171 300 264 165 261 163 237 237 234 139 254 244 233 217 221 212 227 156 213 211 209 221 211 219 197 157 194 203 182 195 191 195 113 119 193 204 183 213 139 199 218 204 127
157 279 233 253 235 231 226 221 227 223 222 221 142 219 234 227 231 221 213 224 209 215 203 204 214 206 190 200 214 202 162 187 206 201 182 213 223 206 124 190 241 148 217 238
295 239 240 236 225 198 227 220 228 225 224 213 224 226 222 227 202 222 216 210 211 209 217 218 218 203 203 197 194 197 188 203 174 201 209 164 215 163 236 213 202 175 225 259
243 239 230 235 225 222 223 227 185 229 226 208 210 213 240 226 223 210 214 204 209 231 220 219 212 193 194 197 204 205 202 190 197 193 200 203 216 141 224 223 198 259 309 299
236 243 234 220 210 229 220 216 204 212 215 217 213 222 210 210 207 221 208 218 196 199 211 212 215 216 223 191 186 212 198 192 184 201 201 191 216 231 205 263 260 316 278 359
222 211 210 206 222 209 206 212 218 225 225 221 216 212 216 202 227 213 210 212 187 201 203 220 159 214 157 219 201 225 200 224 199 192 207 215 224 263 251 264 312 371 440 481
211 210 212 222 216 212 215 225 214 224 206 207 226 218 212 211 234 221 213 166 201 205 202 200 217 214 215 203 206 225 240 193 225 226 222 235 269 263 277 341 374 430 444 422
218 232 229 209 215 222 221 218 206 215 210 206 225 211 190 212 228 218 192 207 211 197 199 207 210 209 168 211 187 185 204 231 216 250 247 257 277 295 312 380 388 418 392 386
214 214 206 233 221 221 218 219 210 214 208 220 226 222 220 202 221 201 202 205 213 207 213 218 203 215 219 151 224 222 246 252 238 252 253 275 290 315 326 460 398 369 374 348
212 218 218 222 201 204 198 212 214 207 199 219 210 203 195 211 223 211 218 212 217 213 223 204 230 216 121 188 239 254 191 248 253 264 262 291 334 386 455 397 362 352 342 327
220 217 200 215 209 216 208 206 218 196 198 213 214 203 209 207 197 200 219 210 212 226 219 222 225 218 236 238 256 253 254 255 258 264 286 309 372 441 399 360 349 327 318 317
217 211 207 201 203 200 216 204 207 196 195 203 205 194 223 214 186 200 213 209 221 214 218 170 233 234 227 246 262 232 262 259 261 285 319 392 363 407 361 344 323 314 304 300
212 214 211 213 200 206 196 197 210 196 208 203 206 204 203 209 212 212 216 223 230 215 218 218 231 223 239 249 247 269 255 268 291 429 481 442 408 367 339 324 313 302 299 283
218 217 211 205 209 195 198 215 200 207 204 211 205 212 210 221 209 223 208 223 243 224 203 237 223 252 256 242 266 254 273 290 383 470 432 404 366 342 304 137 279 305 289 279
221 229 203 206 220 205 211 204 202 209 201 210 226 200 210 212 229 226 221 227 237 241 239 250 254 244 266 265 273 297 278 477 403 385 398 364 344 322 133 144 149 287 280 275
218 211 204 204 213 220 214 220 206 212 229 213 228 216 217 226 228 219 224 245 233 236 149 242 270 253 262 290 294 280 445 434 412 389 364 337 330 148 283 146 152 160 276 267
216 212 214 216 213 219 218 217 214 225 244 223 221 217 229 215 223 227 231 235 252 222 249 272 268 270 293 275 319 321 427 405 381 362 336 327 313 295 306 299 179 160 190 270
207 210 220 226 225 231 224 218 211 207 214 223 224 233 236 230 234 235 246 217 239 249 252 253 266 296 277 378 427 418 394 374 362 338 325 308 305 294 305 293 285 280 171 270
208 215 224 225 212 221 229 221 216 216 216 229 238 235 226 246 241 249 233 249 256 268 284 294 299 303 426 412 402 388 365 351 341 322 315 305 297 291 297 288 281 281 276 275